Location: Chateh
(58.6667°N, 118.6000°W)
Time: 08:06:45
(UTC+00:00)

PCSat - Pass Details

Date: 14 December 2023
Orbit: 784 x 792 km, 67.0° (Epoch: 04 March)

Event Time Altitude Azimuth Distance (km) Brightness Sun altitude
Exits shadow 12:56:28 42° 355° (N) 1,118 10.2 -26.4°
Drops below altitude 10° 13:01:06 10° 51° (NE) 2,366 12.6 -25.8°
Sets 13:03:39 0° 58° (ENE) 3,298 13.6 -25.5°
